EW4496 Weather Reports


time (UTC)temp
C
wind
direction
speed
KPH
gust
KPH
rain 1hr
cm
rain 24hr
cm
rain mn
cm
humidity
%
barometer
mb
20260507131551 11 288 0.0 0.0 0.00 0.00 0.00 94 1017.5
20260507130104 11 278 0.0 0.0 0.00 0.00 0.00 93 1017.5
20260507124618 11 280 0.0 0.0 0.00 0.00 0.00 93 1017.3
20260507123050 11 241 0.0 0.0 0.00 0.00 0.00 93 1017.3
20260507121553 11 262 0.0 0.0 0.00 0.00 0.00 93 1017.3
20260507120051 11 262 0.0 0.0 0.00 0.00 0.00 92 1017.3
20260507114609 12 262 0.0 0.0 0.00 0.00 0.00 92 1017.3
20260507113055 12 262 0.0 0.0 0.00 0.00 0.00 92 1017.3
20260507111551 12 262 0.0 0.0 0.00 0.00 0.00 92 1017.2
20260507110051 12 262 0.0 0.0 0.00 0.00 0.00 92 1017.2
20260507104558 12 262 0.0 0.0 0.00 0.00 0.00 91 1017.2
20260507103005 12 266 0.0 0.0 0.00 0.00 0.00 90 1017.2
20260507101507 12 266 0.0 0.0 0.00 0.00 0.00 90 1017.2
20260507100006 12 266 0.0 0.0 0.00 0.00 0.00 89 1017.2
20260507094505 13 266 0.0 0.0 0.00 0.00 0.00 88 1017.3
20260507093005 13 267 0.0 0.0 0.00 0.00 0.00 87 1017.3
20260507091534 13 236 0.0 0.0 0.00 0.00 0.00 86 1017.3
20260507090022 13 226 0.0 0.0 0.00 0.00 0.00 86 1017.3
20260507084524 13 193 0.0 0.0 0.00 0.00 0.00 86 1017.4
20260507083020 14 242 0.0 0.0 0.00 0.00 0.00 85 1017.4
20260507081521 14 219 0.0 0.0 0.00 0.00 0.00 85 1017.5
20260507080020 14 233 0.0 0.0 0.00 0.00 0.00 86 1017.4
20260507074523 14 233 0.0 0.0 0.00 0.00 0.00 85 1017.4
20260507073020 15 233 0.0 0.0 0.00 0.00 0.00 84 1017.5
20260507071540 15 233 0.0 0.0 0.00 0.00 0.00 86 1017.4
20260507070050 15 235 0.0 0.0 0.00 0.00 0.00 86 1017.4
20260507064657 15 227 0.0 0.0 0.00 0.00 0.00 85 1017.3
20260507063052 15 217 0.0 0.0 0.00 0.00 0.00 84 1017.3
20260507061555 16 217 0.0 0.0 0.00 0.00 0.00 83 1017.2
20260507060055 16 266 0.0 0.0 0.00 0.00 0.00 82 1017.2
20260507054556 16 231 0.0 0.0 0.00 0.00 0.00 82 1017.1
20260507053055 16 243 0.0 0.0 0.00 0.00 0.00 82 1017.2
20260507051600 16 243 0.0 0.0 0.00 0.00 0.00 82 1017.1
20260507050054 17 308 0.0 0.0 0.00 0.00 0.00 82 1017.0
20260507044555 17 307 0.0 0.0 0.00 0.00 0.00 80 1017.0
20260507043055 18 295 0.0 0.0 0.00 0.00 0.00 78 1016.9
20260507041555 18 290 0.0 0.0 0.00 0.00 0.00 77 1016.8
20260507040055 19 323 0.0 0.0 0.00 0.00 0.00 72 1016.6
20260507034554 20 323 0.0 0.0 0.00 0.00 0.00 68 1016.3
20260507033101 20 323 0.0 0.0 0.00 0.00 0.00 66 1016.3
20260507031601 21 323 0.0 0.0 0.00 0.00 0.00 65 1016.1
20260507030109 22 323 0.0 0.0 0.00 0.00 0.00 61 1016.1
20260507024608 23 323 0.0 0.0 0.00 0.00 0.00 56 1016.0
20260507023108 24 323 0.0 0.0 0.00 0.00 0.00 53 1015.9
20260507021610 24 323 0.0 0.0 0.00 0.00 0.00 52 1015.8
20260507020108 25 345 0.0 0.0 0.00 0.00 0.00 52 1015.9
20260507014608 24 4 0.0 0.0 0.00 0.00 0.00 53 1016.0
20260507013120 24 359 0.0 0.0 0.00 0.00 0.00 53 1015.9
20260507011523 24 328 0.0 0.0 0.00 0.00 0.00 52 1016.0
20260507010026 24 41 0.0 0.0 0.00 0.00 0.00 52 1016.1
20260507004524 25 326 0.0 4.8 0.00 0.00 0.00 52 1016.0
20260507003024 24 340 0.0 1.6 0.00 0.00 0.00 53 1016.0
20260507001529 23 71 0.0 0.0 0.00 0.00 0.00 52 1016.1
20260507000023 24 51 0.0 3.2 0.00 0.00 0.00 52 1016.0
20260506234530 24 355 0.0 1.6 0.00 0.00 0.00 54 1016.2
20260506233022 24 3 0.0 4.8 0.00 0.00 0.00 53 1016.2
20260506231527 23 4 0.0 6.4 0.00 0.00 0.00 53 1016.3
20260506230026 23 37 0.0 8.0 0.00 0.00 0.00 55 1016.6
20260506224523 23 28 1.6 6.4 0.00 0.00 0.00 54 1016.9
20260506223022 23 12 0.0 0.0 0.00 0.00 0.00 54 1017.0
20260506221522 22 323 0.0 3.2 0.00 0.00 0.00 55 1017.3
20260506220028 23 36 0.0 9.7 0.00 0.00 0.00 55 1017.6
20260506214522 22 17 0.0 1.6 0.00 0.00 0.00 55 1017.8
20260506213007 22 345 0.0 6.4 0.00 0.00 0.00 55 1018.0
20260506211511 22 23 0.0 6.4 0.00 0.00 0.00 56 1018.2
20260506210012 21 7 0.0 9.7 0.00 0.00 0.00 59 1018.3
20260506204507 22 38 0.0 4.8 0.00 0.00 0.00 58 1018.5
20260506203007 22 324 0.0 4.8 0.00 0.00 0.00 55 1018.6
20260506201508 21 31 0.0 9.7 0.00 0.00 0.00 59 1018.8
20260506200023 21 345 0.0 12.9 0.00 0.00 0.00 59 1018.9
20260506194522 21 25 1.6 6.4 0.00 0.00 0.00 57 1019.0
20260506193024 21 4 0.0 4.8 0.00 0.00 0.00 59 1019.3
20260506191522 21 11 0.0 4.8 0.00 0.00 0.00 60 1019.5
20260506190022 21 35 0.0 0.0 0.00 0.00 0.00 63 1019.5
20260506184536 20 30 0.0 1.6 0.00 0.00 0.00 64 1019.7
20260506183021 20 25 0.0 1.6 0.00 0.00 0.00 64 1019.7
20260506181551 20 354 0.0 0.0 0.00 0.00 0.00 65 1019.8
20260506174601 18 301 0.0 0.0 0.00 0.00 0.00 69 1019.8
20260506173112 18 304 0.0 1.6 0.00 0.00 0.00 70 1019.9
20260506171610 17 316 0.0 1.6 0.00 0.00 0.00 74 1019.9
20260506170115 17 340 0.0 0.0 0.00 0.00 0.00 76 1020.0
20260506164521 16 290 0.0 0.0 0.00 0.00 0.00 77 1019.9
20260506163019 16 304 0.0 0.0 0.00 0.00 0.00 77 1019.8
20260506161533 16 245 0.0 0.0 0.00 0.00 0.00 78 1019.9
20260506160032 15 290 0.0 0.0 0.00 0.00 0.00 79 1019.9
20260506154531 15 238 0.0 0.0 0.00 0.00 0.00 80 1019.8
20260506153032 15 300 0.0 0.0 0.00 0.00 0.00 81 1019.9
20260506151531 15 315 0.0 0.0 0.00 0.00 0.00 82 1019.8
20260506150031 14 231 0.0 0.0 0.00 0.00 0.00 82 1019.8
20260506144532 14 266 0.0 0.0 0.00 0.00 0.00 83 1019.7
20260506143034 13 286 0.0 0.0 0.00 0.00 0.00 84 1019.7
20260506141530 13 267 0.0 0.0 0.00 0.00 0.00 86 1019.6
20260506140030 13 233 0.0 0.0 0.00 0.00 0.00 86 1019.3
20260506134530 13 233 0.0 0.0 0.00 0.00 0.00 86 1019.2